This is the latest recevied weather packets stored in our database for station/object WA0GMH-1. If no packets are shown the sender has not sent any weather packets the latest 10 day(s).
| Time | Temp. | Humidity | Pressure | Rain* | Wind** | Luminosity | Snow |
|---|---|---|---|---|---|---|---|
| 1777658837 | 11.67° C | 3% | 1019.8 hPa | 0 mm | - | - | - |
| 1777658435 | 11.11° C | 2% | 1020.1 hPa | 0 mm | - | - | - |
| 1777658033 | 11.11° C | 3% | 1020.1 hPa | 0 mm | - | - | - |
| 1777657630 | 11.11° C | 6% | 1020.1 hPa | 0 mm | - | - | - |
| 1777657228 | 10.56° C | 4% | 1020.2 hPa | 0 mm | - | - | - |
| 1777656826 | 11.11° C | 3% | 1020.2 hPa | 0 mm | - | - | - |
| 1777656424 | 10.56° C | 2% | 1020.1 hPa | 0 mm | - | - | - |
| 1777656021 | 10.56° C | 5% | 1020.1 hPa | 0 mm | - | - | - |
| 1777655619 | 10.56° C | 6% | 1020.2 hPa | 0 mm | - | - | - |
| 1777655216 | 10.56° C | 7% | 1020.2 hPa | 0 mm | - | - | - |
| 1777654815 | 10.56° C | 6% | 1020.1 hPa | 0 mm | - | - | - |
| 1777654412 | 10° C | 6% | 1020.1 hPa | 0 mm | - | - | - |
| 1777654010 | 10° C | 5% | 1020.1 hPa | 0 mm | - | - | - |
| 1777653608 | 10° C | 10% | 1020.2 hPa | 0 mm | - | - | - |
| 1777653206 | 9.44° C | 12% | 1020.2 hPa | 0 mm | - | - | - |
| 1777652803 | 9.44° C | 12% | 1020.2 hPa | 0 mm | - | - | - |
| 1777652401 | 9.44° C | 15% | 1020.1 hPa | 0 mm | - | - | - |
| 1777651999 | 8.89° C | 13% | 1020.3 hPa | 0 mm | - | - | - |
| 1777651597 | 8.89° C | 15% | 1020 hPa | 0 mm | - | - | - |
| 1777651194 | 8.89° C | 17% | 1019.8 hPa | 0 mm | - | - | - |
| 1777650792 | 8.33° C | 20% | 1019.8 hPa | 0 mm | - | - | - |
| 1777650390 | 8.33° C | 20% | 1019.8 hPa | 0 mm | - | - | - |
| 1777649988 | 8.33° C | 21% | 1020 hPa | 0 mm | - | - | - |
| 1777649585 | 7.78° C | 25% | 1019.9 hPa | 0 mm | - | - | - |
| 1777649183 | 7.78° C | 26% | 1020 hPa | 0 mm | - | - | - |
* Rain since midnight (hover to see other rain measurements)
** Current wind speed in m/s (hover to see current wind gust speed)